SCP
0 0 0 0 0 0 0 0 0 0 0 0 0 0 0 0 0 0 0 0 0 0 0 0 0 0 0 0 0 0 0 0 0 0 0 0 0 0 0 0 0 0 0
0 0 0 0 0 0 0 0 0 0 0 0 0 0 0 0 0 0 0 0 0 0 0 0 0 0 0 0 0 0 0 0 0 0 0 0 0 0 0 0 0 0 0
0 0 0 0 0 0 0 0 0 0 0 0 0 0 0 0 0 0 0 0 0 0 0 0 0 0 0 0 0 0 0 0 0 0 0 0 0 0 0 0 0 0 0
0 0 0 0 0 0 0 0 0 0 0 0 0 0 0 0 0 0 0 0 0 0 0 0 0 0 0 0 0 0 0 0 0 0 0 0 0 0 0 0 0 0 0
0 0 0 0 0 0 0 0 0 0 0 0 0 0 0 0 0 0 0 0 0 0 0 0 0 0 0 0 0 0 0 0 0 0 0 0 0 0 0 0 0 0 0
0 0 0 0 0 0 0 0 0 0 0 0 0 0 0 0 0 0 0 0 0 0 0 0 0 0 0 0 0 0 0 0 0 0 0 0 0 0 0 0 0 0 0
0 0 0 0 0 0 0 0 0 0 0 0 0 0 0 0 0 0 0 0 0 0 0 0 0 0 0 0 0 0 0 0 0 0 0 0 0 0 0 0 0 0 0
0 0 0 0 0 0 0 0 0 0 0 0 0 0 0 0 0 0 0 0 0 0 0 0 0 0 0 0 0 0 0 0 0 0 0 0 0 0 0 0 0 0 0
0 0 0 0 0 0 0 0 0 0 0 0 0 0 0 0 0 0 0 0 0 0 0 0 0 0 0 0 0 0 0 0 0 0 0 0 0 0 0 0 0 0 0
0 0 0 0 0 0 0 0 0 0 0 0 0 0 0 0 0 0 0 0 0 0 0 0 0 0 0 0 0 0 0 0 0 0 0 0 0 0 0 0 0 0 0
0 0 0 0 0 0 0 0 0 0 0 0 0 0 0 0 0 0 0 0 0 0 0 0 0 0 0 0 0 0 0 0 0 0 0 0 0 0 0 0 0 0 0
0 0 0 0 0 0 0 0 0 0 0 0 0 0 0 0 0 0 0 0 0 0 0 0 0 0 0 0 0 0 0 0 0 0 0 0 0 0 0 0 0 0 0
0 0 0 0 0 0 0 0 0 0 0 0 0 0 0 0 0 0 0 0 0 0 0 0 0 0 0 0 0 0 0 0 0 0 0 0 0 0 0 0 0 0 0
0 0 0 0 0 0 0 0 0 0 0 0 0 0 0 0 0 0 0 0 0 0 0 0 0 0 0 0 0 0 0 0 0 0 0 0 0 0 0 0 0 0 0
0 0 0 0 0 0 0 0 0 0 0 0 0 0 0 0 0 0 0 0 0 0 0 0 0 0 0 0 0 0 0 0 0 0 0 0 0 0 0 0 0 0 0
0 0 0 0 0 0 0 0 0 0 0 0 0 0 0 0 0 0 0 0 0 0 0 0 0 0 0 0 0 0 0 0 0 0 0 0 0 0 0 0 0 0 0
0 0 0 0 0 0 0 0 0 0 0 0 0 0 0 0 0 0 0 0 0 0 0 0 0 0 0 0 0 0 0 0 0 0 0 0 0 0 0 0 0 0 0
0 0 0 0 0 0 0 0 0 0 0 0 0 0 0 0 0 0 0 0 0 0 0 0 0 0 0 0 0 0 0 0 0 0 0 0 0 0 0 0 0 0 0
0 0 0 0 0 0 0 0 0 0 0 0 0 0 0 0 0 0 0 0 0 0 0 0 0 0 0 0 0 0 0 0 0 0 0 0 0 0 0 0 0 0 0
0 0 0 0 0 0 0 0 0 0 0 0 0 0 0 0 0 0 0 0 0 0 0 0 0 0 0 0 0 0 0 0 0 0 0 0 0 0 0 0 0 0 0
0 0 0 0 0 0 0 0 0 0 0 0 0 0 0 0 0 0 0 0 0 0 0 0 0 0 0 0 0 0 0 0 0 0 0 0 0 0 0 0 0 0 0
0 0 0 0 0 0 0 0 0 0 0 0 0 0 0 0 0 0 0 0 0 0 0 0 0 0 0 0 0 0 0 0 0 0 0 0 0 0 0 0 0 0 0
0 0 0 0 0 0 0 0 0 0 0 0 0 0 0 0 0 0 0 0 0 0 0 0 0 0 0 0 0 0 0 0 0 0 0 0 0 0 0 0 0 0 0
0 0 0 0 0 0 0 0 0 0 0 0 0 0 0 0 0 0 0 0 0 0 0 0 0 0 0 0 0 0 0 0 0 0 0 0 0 0 0 0 0 0 0
0 0 0 0 0 0 0 0 0 0 0 0 0 0 0 0 0 0 0 0 0 0 0 0 0 0 0 0 0 0 0 0 0 0 0 0 0 0 0 0 0 0 0
0 0 0 0 0 0 0 0 0 0 0 0 0 0 0 0 0 0 0 0 0 0 0 0 0 0 0 0 0 0 0 0 0 0 0 0 0 0 0 0 0 0 0
Wind_Speed
2 2 1 1 1 1 2 1 2 2 3 3 3 3 3 3 3 3 2 6 6 6 6 6 6 6 6 6 6 7 7 7 7 7 7 7 6 5 5 5 5 5 6
2 2 2 1 1 1 1 1 2 2 2 2 3 3 2 2 3 3 2 4 6 6 5 5 5 5 5 5 5 6 6 6 6 6 6 6 6 6 5 5 5 4 4
2 2 2 1 1 1 1 2 2 2 2 2 3 2 2 2 2 2 2 2 3 5 5 4 4 4 4 3 4 4 4 4 4 5 5 5 6 5 5 5 4 4 3
2 2 2 1 1 1 1 2 2 2 2 2 2 1 1 1 2 2 2 2 2 2 3 4 4 4 3 3 3 3 3 3 3 3 4 4 4 4 4 4 4 3 2
2 2 2 1 1 1 1 1 2 2 2 1 1 1 1 1 1 1 2 2 1 1 1 3 4 4 3 3 2 2 2 3 2 2 2 2 2 3 3 3 3 2 2
2 2 2 2 2 2 1 1 2 2 1 1 2 2 1 1 1 1 1 1 1 2 2 2 2 3 4 3 2 2 1 1 1 1 1 1 1 2 3 2 2 2 2
2 2 2 2 2 2 1 2 2 2 1 1 2 1 2 1 1 1 1 1 1 1 1 2 2 2 2 4 3 2 2 1 0 0 0 0 0 1 1 1 1 2 3
1 2 2 2 2 2 2 2 2 1 1 0 1 1 0 2 2 1 1 0 0 1 1 2 1 1 2 2 3 3 3 3 2 2 2 2 2 2 2 3 2 2 2
1 1 2 2 2 2 2 2 2 2 2 1 0 2 2 2 1 2 1 1 1 1 1 1 1 1 1 1 2 3 4 4 3 3 3 4 4 4 4 4 3 3 3
1 1 2 2 2 1 2 2 1 1 2 2 1 0 1 2 2 1 2 2 2 1 2 2 1 1 1 1 1 3 4 4 4 4 4 4 4 5 5 5 5 4 4
1 1 2 2 2 1 2 2 1 2 2 2 2 1 0 0 1 2 2 2 2 2 2 2 2 1 1 1 1 2 3 4 5 5 5 5 5 5 6 6 6 5 5
1 1 1 1 2 2 2 2 2 2 2 2 2 1 2 2 2 2 2 2 3 3 2 2 2 2 1 1 2 3 4 4 5 6 6 6 5 6 6 6 7 6 6
1 2 1 2 2 2 2 2 2 2 3 3 3 2 2 2 2 2 2 2 2 2 2 2 2 2 1 1 2 4 4 4 5 6 7 6 6 6 6 7 7 7 7
2 2 2 2 2 2 2 2 2 2 2 3 3 3 2 2 2 2 2 2 1 2 2 3 2 1 1 1 3 4 3 5 5 6 7 7 6 6 7 7 7 8 7
2 2 2 2 2 2 2 2 2 3 2 3 3 3 3 2 2 2 2 2 3 3 4 3 2 1 1 1 3 2 2 5 5 6 6 7 7 7 7 7 7 8 7
2 2 2 2 2 2 2 2 2 3 2 3 3 3 3 2 2 2 2 2 2 3 4 2 2 2 2 2 4 3 3 6 6 6 7 8 8 8 8 8 8 8 8
2 2 3 3 3 3 3 3 3 3 3 3 3 3 4 3 2 2 2 2 2 2 4 3 2 2 2 3 3 3 3 3 3 7 8 8 9 9 9 9 8 9 9
2 2 2 2 3 3 3 3 4 3 4 4 4 4 4 3 3 2 2 3 3 2 3 4 3 2 3 3 2 3 3 3 3 6 8 9 9 9 9 10 9 10 10
2 2 2 2 3 3 4 4 4 4 4 4 4 4 4 3 4 3 3 3 3 2 2 3 3 2 2 2 2 3 3 3 4 5 7 8 9 10 10 10 9 10 10
2 2 2 2 3 3 4 4 4 4 4 4 4 4 5 5 5 4 3 3 2 2 2 3 3 2 2 2 1 2 3 3 4 4 5 6 7 9 10 10 10 10 10
2 2 2 2 3 3 3 4 4 4 4 4 4 4 5 6 6 5 4 4 3 3 3 3 3 3 3 2 3 2 4 3 4 2 3 3 4 4 5 8 9 9 10
2 2 2 3 3 3 5 6 5 4 4 5 4 4 4 5 6 7 8 7 6 5 4 4 4 5 5 4 3 3 3 3 4 1 2 4 3 4 4 3 7 10 11
2 2 2 3 3 5 7 7 7 4 4 4 5 4 4 4 5 3 5 5 5 7 7 6 5 6 5 4 4 4 4 4 4 3 2 5 3 4 3 5 9 10 10
2 2 3 3 3 4 7 7 7 4 3 4 5 5 5 5 5 4 4 3 4 4 5 4 5 5 5 4 5 5 4 3 3 3 2 4 3 3 4 3 8 9 10
2 2 2 3 3 5 7 7 6 3 3 4 4 4 5 5 7 7 5 5 4 4 5 6 6 6 6 6 4 2 2 3 4 3 2 3 3 3 4 3 4 7 9
2 2 3 3 3 4 7 8 6 2 3 3 3 4 6 7 7 7 5 5 5 5 3 3 3 4 3 4 5 4 3 4 3 3 2 2 2 2 4 3 2 3 5
Wind_Direction
122 117 105 103 103 96 90 78 70 63 59 58 62 72 69 60 50 37 33 46 53 65 73 78 80 83 85 86 85 82 78 76 76 77 77 75 85 93 95 93 96 96 90
137 129 118 109 104 106 111 114 101 83 67 68 68 69 74 70 60 44 35 37 44 50 59 69 72 77 86 87 86 84 81 78 72 72 76 75 74 81 88 92 88 93 93
134 128 124 122 123 115 113 104 91 80 73 67 67 70 77 71 69 58 43 33 28 33 39 54 63 63 73 84 89 88 86 84 78 73 74 75 71 74 80 79 74 73 83
129 128 121 116 105 111 115 112 104 89 71 68 60 46 59 66 67 65 57 44 29 21 23 39 45 51 50 62 80 86 87 88 82 78 75 72 69 60 69 73 73 72 81
133 132 126 121 103 106 115 124 100 108 104 91 76 53 37 52 46 64 57 43 37 29 14 22 30 34 38 40 52 67 86 95 88 77 72 70 69 55 51 66 61 58 59
124 125 128 126 116 103 97 95 104 89 111 120 87 50 14 17 26 44 46 41 29 33 26 17 11 5 17 23 20 20 42 90 95 93 74 77 61 53 29 39 37 28 19
132 131 128 132 127 127 127 128 113 101 75 104 90 43 8 9 13 357 25 40 26 31 36 19 8 7 354 358 357 345 325 313 256 240 299 290 298 274 350 350 8 6 6
153 139 134 143 149 136 119 123 113 120 135 130 125 117 27 340 334 320 316 304 340 16 16 4 4 3 350 339 348 353 343 327 300 282 278 276 280 275 297 311 304 314 325
174 152 146 147 161 156 159 161 164 148 177 236 176 157 157 211 302 317 304 294 322 344 324 321 323 323 347 346 331 341 340 327 305 290 283 276 275 277 279 300 287 292 298
178 161 154 159 167 166 165 175 177 174 167 194 271 294 176 155 161 290 314 322 325 299 296 300 297 291 308 309 324 342 328 319 308 297 292 290 285 281 272 288 279 277 282
204 181 169 167 173 178 178 177 178 189 181 186 195 194 168 12 169 191 259 295 318 299 284 271 265 266 275 262 271 308 309 307 303 298 294 293 296 300 289 291 279 275 281
222 216 203 193 190 192 194 195 193 198 203 193 197 192 183 189 196 194 226 255 282 294 296 269 248 256 261 255 279 295 294 294 297 297 292 291 297 305 302 303 292 277 280
233 229 216 211 208 215 210 198 195 207 207 196 202 216 220 224 208 196 204 238 270 286 291 278 249 256 254 263 285 289 283 285 291 289 288 291 295 299 304 304 305 292 287
232 228 220 219 217 218 218 205 210 223 216 208 217 218 223 234 215 204 198 196 270 287 278 269 288 247 260 271 279 284 278 281 285 287 288 291 294 296 298 297 304 295 293
240 222 225 229 229 221 216 206 217 227 222 217 220 220 228 236 231 219 205 194 195 242 262 258 257 279 284 284 286 287 281 278 281 283 288 290 289 287 286 290 297 291 288
252 233 231 231 237 233 222 211 225 226 225 229 225 223 233 236 227 231 217 219 212 218 248 252 259 291 300 294 291 298 287 290 282 283 286 286 286 284 283 286 292 288 283
266 248 237 232 235 236 228 223 231 229 225 235 231 227 234 234 227 232 222 218 227 218 248 272 281 291 289 288 294 293 288 282 281 283 283 284 284 285 285 287 292 288 280
269 266 253 241 243 244 234 225 233 235 227 232 231 227 234 231 231 231 219 221 228 224 232 261 272 271 273 275 282 285 295 292 285 285 286 283 282 284 284 286 290 288 277
269 273 269 257 255 249 241 233 228 234 232 232 229 224 230 225 235 234 228 226 230 240 233 244 263 266 276 278 285 290 294 292 291 290 285 280 284 287 288 286 288 289 280
261 263 267 268 265 259 249 240 232 234 235 236 234 229 227 222 227 229 233 228 226 233 238 241 256 259 264 271 263 274 288 286 287 295 289 290 291 292 291 288 290 291 282
276 262 262 268 269 261 250 245 238 236 233 234 235 232 232 232 233 232 237 228 219 224 234 247 252 254 252 243 246 253 274 288 283 274 291 287 290 284 283 285 288 291 283
291 283 255 255 262 265 264 258 248 235 234 230 234 238 239 238 239 244 246 237 226 223 226 234 246 245 246 239 242 250 266 284 282 275 287 287 274 272 274 267 281 289 284
295 284 276 261 259 265 269 266 259 247 235 233 232 234 244 244 241 233 242 247 243 244 236 226 233 241 241 234 233 244 244 253 264 268 281 280 266 270 274 282 290 294 289
297 285 287 284 283 279 277 274 268 253 238 238 234 231 233 236 230 229 228 232 240 246 242 235 232 239 240 232 222 233 245 265 280 270 247 265 274 276 291 283 285 294 294
301 295 291 292 292 294 292 288 281 248 242 242 239 235 232 229 235 235 224 225 240 253 255 254 255 257 259 258 245 227 238 252 273 268 238 250 272 293 290 278 284 297 304
283 293 298 296 288 288 293 293 288 258 247 250 246 240 244 244 244 236 219 216 231 241 240 257 267 275 268 260 255 233 220 232 258 267 237 245 269 305 296 278 278 293 300